FW9340 Weather Reports


Display with metric or nautical units.
time (UTC)temp
F
wind
direction
speed
MPH
gust
MPH
rain 1hr
in
rain 24hr
in
rain mn
in
humidity
%
barometer
mb
20260505024540 66 228 1.0 6.0 0.00 0.00 0.00 53 1011.0
20260505023035 66 236 2.0 4.0 0.00 0.00 0.00 53 1011.0
20260505021541 66 0 0.0 3.0 0.00 0.00 0.00 52 1010.9
20260505020039 66 0 0.0 2.0 0.00 0.00 0.00 52 1010.8
20260505014540 66 0 0.0 5.0 0.00 0.00 0.00 52 1010.7
20260505013055 66 0 0.0 2.0 0.00 0.00 0.00 52 1010.4
20260505011547 67 126 0.0 0.0 0.00 0.00 0.00 51 1010.5
20260505010041 68 0 0.0 0.0 0.00 0.00 0.00 49 1010.4
20260505004540 69 0 0.0 0.0 0.00 0.00 0.00 46 1010.2
20260505003039 70 148 0.0 2.0 0.00 0.00 0.00 45 1009.9
20260505001539 71 0 1.0 4.0 0.00 0.00 0.00 44 1010.1
20260505000054 71 216 1.0 4.0 0.00 0.00 0.00 43 1010.0
20260504234543 71 124 2.0 11.0 0.00 0.00 0.00 42 1010.0
20260504233043 72 163 2.0 9.0 0.00 0.00 0.00 41 1009.9
20260504231542 72 238 2.0 10.0 0.00 0.00 0.00 40 1009.7
20260504230040 73 154 3.0 11.0 0.00 0.00 0.00 39 1009.8
20260504224539 73 227 6.0 20.0 0.00 0.00 0.00 38 1009.9
20260504223047 74 198 5.0 14.0 0.00 0.00 0.00 37 1009.7
20260504221539 75 192 7.0 15.0 0.00 0.00 0.00 36 1009.6
20260504220044 74 229 6.0 18.0 0.00 0.00 0.00 36 1009.7
20260504214546 75 219 6.0 14.0 0.00 0.00 0.00 36 1009.7
20260504213040 74 251 3.0 11.0 0.00 0.00 0.00 37 1009.7
20260504211542 75 335 4.0 11.0 0.00 0.00 0.00 36 1009.7
20260504210042 75 237 6.0 12.0 0.00 0.00 0.00 34 1009.7
20260504204540 75 234 5.0 11.0 0.00 0.00 0.00 36 1009.8
20260504203040 75 156 4.0 12.0 0.00 0.00 0.00 36 1009.9
20260504201550 74 257 5.0 10.0 0.00 0.00 0.00 36 1010.2
20260504200046 74 148 3.0 16.0 0.00 0.00 0.00 35 1010.4
20260504194547 74 54 4.0 14.0 0.00 0.00 0.00 36 1010.4
20260504193040 73 333 4.0 12.0 0.00 0.00 0.00 37 1010.7
20260504191548 73 222 6.0 10.0 0.00 0.00 0.00 37 1011.2
20260504190039 73 210 1.0 16.0 0.00 0.00 0.00 37 1011.4
20260504184559 73 263 3.0 12.0 0.00 0.00 0.00 39 1011.7
20260504183042 73 291 4.0 10.0 0.00 0.00 0.00 41 1012.0
20260504181540 71 175 5.0 12.0 0.00 0.00 0.00 38 1012.0
20260504180042 72 242 1.0 7.0 0.00 0.00 0.00 39 1012.2
20260504174540 72 162 2.0 11.0 0.00 0.00 0.00 38 1012.2
20260504173040 70 150 3.0 13.0 0.00 0.00 0.00 38 1012.3
20260504171540 70 226 6.0 13.0 0.00 0.00 0.00 40 1012.7
20260504081542 46 0 0.0 0.0 0.00 0.00 0.00 73 1015.3
20260504044544 43 0 0.0 0.0 0.00 0.00 0.00 74 1015.6
20260504043043 42 0 0.0 0.0 0.00 0.00 0.00 73 1015.6
20260504041541 44 0 0.0 0.0 0.00 0.00 0.00 69 1015.6
20260504040048 45 0 0.0 0.0 0.00 0.00 0.00 68 1015.7
20260504034542 43 0 0.0 0.0 0.00 0.00 0.00 69 1015.6
20260504033052 42 0 0.0 0.0 0.00 0.00 0.00 70 1015.5
20260504031550 43 0 0.0 0.0 0.00 0.00 0.00 72 1015.3
20260504030043 44 0 0.0 0.0 0.00 0.00 0.00 71 1015.2